Lone Rock, WI

4:48 AM CDT on June 29, 2017 (GMT -0500)
Tri-County Regional

Weather History for KLNR - January, 2012

Change the Weather History Date:

Monday, January 9, 2012

  Actual Average Record
Temperature  
Mean Temperature 34 °F -  
Max Temperature 46 °F 25 °F 50 °F (2002)
Min Temperature 21 °F 11 °F -20 °F (2014)
Degree Days  
Heating Degree Days 32    
Moisture  
Dew Point 25 °F    
Average Humidity 67    
Maximum Humidity 88    
Minimum Humidity 44    
Precipitation  
Precipitation 0.00 in - - ()
Sea Level Pressure  
Sea Level Pressure 30.02 in    
Wind  
Wind Speed 5 mph (WSW)    
Max Wind Speed 16 mph    
Max Gust Speed 22 mph    
Visibility 8 miles    
Events      
Averages and records for this station are not official NWS values.
T = Trace of Precipitation, MM = Missing Value Source: NWS Daily Summary

Daily Weather History Graph

Daily Weather History Graph

Search for Another Location

Airport or City:

Trip Planner

Search our weather history database for the weather conditions in past years. The results will help you decide how hot, cold, wet, or windy it might be!

Date:

Astronomy

Jan. 09, 2012 Rise Set
Actual Time 7:32 AM CST 4:43 PM CST
Civil Twilight 7:00 AM CST 5:15 PM CST
Nautical Twilight 6:24 AM CST 5:51 PM CST
Astronomical Twilight 5:50 AM CST 6:25 PM CST
Moon 5:31 PM CST (1/9) 7:31 AM CST (1/9)
Length of Visible Light 10h 15m
Length of Day
9h 11m
Full, 100% of the Moon is Illuminated
Jan 9
Full
Jan 16
Last Quarter
Jan 23
New
Jan 30
First Quarter
Feb 7
Full

Hourly Weather History & Observations

Time (CST) Temp. Windchill Dew Point Humidity Pressure Visibility Wind Dir Wind Speed Gust Speed Precip Events Conditions
12:56 AM 21.0 °F 16.2 °F 18.0 °F 88% 30.21 in 5.0 mi ENE 3.5 mph - N/A   Clear
1:56 AM 21.0 °F 16.2 °F 18.0 °F 88% 30.18 in 4.0 mi East 3.5 mph - N/A   Clear
2:56 AM 23.0 °F - 18.0 °F 81% 30.17 in 5.0 mi Calm Calm - N/A   Haze
3:56 AM 27.0 °F 23.0 °F 21.9 °F 81% 30.14 in 6.0 mi WSW 3.5 mph - N/A   Haze
4:56 AM 26.1 °F - 21.0 °F 81% 30.12 in 6.0 mi Calm Calm - N/A   Haze
5:56 AM 32.0 °F 26.4 °F 24.1 °F 73% 30.11 in 8.0 mi WSW 5.8 mph - N/A   Clear
6:56 AM 32.0 °F 26.4 °F 24.1 °F 73% 30.08 in 8.0 mi WSW 5.8 mph - N/A   Partly Cloudy
7:56 AM 32.0 °F 27.5 °F 24.1 °F 73% 30.07 in 6.0 mi WSW 4.6 mph - N/A   Haze
8:56 AM 34.0 °F 27.2 °F 24.1 °F 67% 30.05 in 7.0 mi WSW 8.1 mph - N/A   Overcast
10:56 AM 41.0 °F 34.7 °F 27.0 °F 57% 29.97 in 8.0 mi WSW 10.4 mph - N/A   Clear
11:56 AM 43.0 °F 36.4 °F 26.1 °F 51% 29.94 in 8.0 mi WSW 12.7 mph 21.9 mph N/A   Clear
12:56 PM 46.0 °F 39.3 °F 26.1 °F 46% 29.91 in 9.0 mi West 16.1 mph 20.7 mph N/A   Clear
1:56 PM 46.9 °F - 26.1 °F 44% 29.90 in 9.0 mi West 12.7 mph - N/A   Clear
2:56 PM 46.9 °F - 26.1 °F 44% 29.90 in 10.0 mi West 10.4 mph 21.9 mph N/A   Clear
3:56 PM 46.0 °F 39.6 °F 27.0 °F 47% 29.92 in 9.0 mi West 15.0 mph 21.9 mph N/A   Clear
4:56 PM 41.0 °F 38.0 °F 27.0 °F 57% 29.93 in 9.0 mi West 4.6 mph - N/A   Clear
5:56 PM 37.9 °F 34.4 °F 27.0 °F 65% 29.95 in 10.0 mi West 4.6 mph - N/A   Clear
6:56 PM 39.0 °F - 27.0 °F 62% 29.97 in 10.0 mi Calm Calm - N/A   Clear
7:56 PM 37.9 °F - 27.0 °F 65% 29.99 in 9.0 mi Calm Calm - N/A   Clear
8:56 PM 37.9 °F 34.4 °F 27.0 °F 65% 30.00 in 9.0 mi West 4.6 mph - N/A   Clear
9:56 PM 37.0 °F 32.4 °F 28.0 °F 70% 30.00 in 9.0 mi West 5.8 mph - N/A   Clear
10:56 PM 37.0 °F 33.3 °F 28.0 °F 70% 30.00 in 8.0 mi West 4.6 mph - N/A   Clear
11:56 PM 27.0 °F - 23.0 °F 85% 30.01 in 7.0 mi Calm Calm - N/A   Clear